Find Starlink 33597

NORAD ID: 62763 Int'l Des: 2025-015 Owner: SPXS Country: US Constellation: starlink operational
LEOCIRCULAR

实时位置

正在加载3D地球...

关于 Starlink 33597

正在加载描述...

即将过境

Passes for default location (London). Set your location on the main map for personalized predictions.

高度历史

Loading altitude history...

两行轨道根数

1 62763U 25015F 26126.58335648 .00040640 00000-0 13154-2 0 9996
2 62763 53.1612 53.8072 0001220 108.9265 164.4150 15.31672239 5864
Epoch: May 6, 2026 • Age: 9 hours

当前状态

高度 485.6 km
速度 7.62 km/s
星下点 -42.79°S, 62.17°E
发射日期 Jan 21, 2025
运行时间 1.2 years
类型 internet

技术详情

分类 Payload
质量 575.00 kg
干质量 530.00 kg
总质量 575.00 kg
长度 0.30 m
直径 4.10 m
跨度 29.00 m
形状 Box + pan
制造商 SPXS
平台类型 Starlink V2MO
阶段状态 In Orbit
所有者/国家 SPXS/US

Most Searched